Left ArrowRight Arrow

35.59393, -105.2239

Hourly Observations for June 19, 2024

Temp ( °F °C ) Dew Point ( °F °C ) Humidity (%) Winds ( mph kmh ) Pressure ( in mb ) Visibility ( mi km ) Precip ( " mm )
12:53 am 00:53 Clear 60 15.6 34 1.1 37 37 ENE 16 26 29.75 1007 10 16 0.00 0.00
1:53 am 01:53 Clear 60 15.6 45 7.2 57 57 NNE 12 19 29.77 1008 10 16 0.00 0.00
2:53 am 02:53 Clear 56 13.3 42 5.6 60 60 N 15 24 29.78 1009 10 16 0.00 0.00
3:53 am 03:53 Clear 53 11.7 40 4.4 61 61 N 13 20 29.82 1010 10 16 0.00 0.00
4:53 am 04:53 Cloudy 57 13.9 42 5.6 57 57 N 13 20 29.85 1011 10 16 0.00 0.00
5:53 am 05:53 Mostly Cloudy 57 13.9 42 5.6 57 57 NE 12 19 29.89 1012 10 16 0.00 0.00
6:53 am 06:53 Cloudy 58 14.4 42 5.6 55 55 NE 16 26 29.91 1013 10 16 0.00 0.00
7:53 am 07:53 Mostly Cloudy 60 15.6 44 6.7 55 55 NE 17 28 29.96 1014 10 16 0.00 0.00
8:53 am 08:53 Cloudy 63 17.2 47 8.3 56 56 NE 16 26 29.96 1015 10 16 0.00 0.00
9:45 am 09:45 Cloudy 65 18.3 48 8.9 54 54 NNE 17 28 29.86 1011 10 16 0.00 0.00
9:53 am 09:53 Cloudy 66 18.9 49 9.4 54 54 NE 15 24 29.99 1016 10 16 0.00 0.00
10:53 am 10:53 Cloudy 65 18.3 50 10 58 58 NE 13 20 30.00 1016 10 16 0.00 0.00
11:53 am 11:53 Mostly Cloudy 68 20 51 10.6 55 55 NE 12 19 30.02 1017 10 16 0.00 0.00
12:53 pm 12:53 Cloudy 69 20.6 55 12.8 61 61 NE 14 22 30.01 1016 10 16 0.00 0.00
1:53 pm 13:53 Mostly Cloudy 71 21.7 56 13.3 59 59 E 16 26 29.98 1015 10 16 0.00 0.00
3:00 pm 15:00 Partly Cloudy with Nearby Thunderstorms 66 18.9 57 13.9 73 73 E 23 37 29.83 1010 10 16 0.00 0.00
3:09 pm 15:09 Mostly Cloudy with Nearby Thunderstorms 66 18.9 57 13.9 73 73 ESE 25 41 29.84 1011 10 16 0.00 0.00
3:53 pm 15:53 Cloudy with Nearby Thunderstorms 62 16.7 56 13.3 80 80 ESE 22 35 30.05 1018 10 16 0.00 0.00
4:18 pm 16:18 Mostly Cloudy 64 17.8 56 13.3 75 75 ESE 24 39 29.88 1012 10 16 0.00 0.00
4:53 pm 16:53 Cloudy 62 16.7 58 14.4 86 86 ESE 17 28 30.02 1017 10 16 0.02 0.51
5:00 pm 17:00 Cloudy with Nearby Thunderstorms 62 16.7 58 14.4 86 86 ESE 17 28 29.90 1013 10 16 0.01 0.13
5:15 pm 17:15 Cloudy 62 16.7 57 13.9 84 84 SE 17 28 29.90 1013 10 16 0.01 0.13
5:30 pm 17:30 Cloudy with Nearby Thunderstorms 63 17.2 56 13.3 78 78 SE 14 22 29.90 1013 10 16 0.01 0.13
6:02 pm 18:02 Cloudy with Nearby Thunderstorms 61 16.1 58 14.4 90 90 E 9 15 29.94 1014 4 6 0.07 1.78
6:10 pm 18:10 Cloudy with Strong Thunderstorms 58 14.4 55 12.8 90 90 NE 8 13 29.98 1015 4 6 0.13 3.30
6:24 pm 18:24 Cloudy with Nearby Thunderstorms 57 13.9 55 12.8 93 93 ENE 10 17 29.99 1016 3 5 0.29 7.37
6:32 pm 18:32 Cloudy with Nearby Thunderstorms 55 12.8 54 12.2 96 96 N 16 26 30.01 1016 2 3 0.44 11.18
6:48 pm 18:48 Cloudy with Thunderstorms 54 12 54 12 100 100 ESE 10 17 30.05 1018 2 2 0.00 0.00
6:53 pm 18:53 Cloudy with Thunderstorms 54 12.2 53 11.7 97 97 ENE 7 11 30.09 1019 4 6 0.00 0.00
7:04 pm 19:04 Cloudy with Light Rain 54 12.2 51 10.6 90 90 N 15 24 30.04 1017 10 16 0.01 0.25
7:12 pm 19:12 Cloudy with Light Rain 56 13.3 52 11.1 87 87 N 14 22 30.01 1016 10 16 0.03 0.76
7:27 pm 19:27 Cloudy with Light Rain 56 13.3 53 11.7 90 90 NNE 8 13 30.02 1016 10 16 0.03 0.76
7:32 pm 19:32 Cloudy with Nearby Thunderstorms 57 13.9 53 11.7 87 87 NNE 10 17 30.00 1016 10 16 0.03 0.76
7:40 pm 19:40 Cloudy with Nearby Thunderstorms 58 14.4 53 11.7 84 84 NNE 7 11 29.99 1016 10 16 0.03 0.76
7:53 pm 19:53 Cloudy with Nearby Thunderstorms 59 15 54 12.2 83 83 E 6 9 30.07 1018 10 16 0.03 0.76
8:10 pm 20:10 Cloudy 58 14.4 54 12.2 87 87 ENE 5 7 29.99 1016 10 16 0.00 0.00
8:53 pm 20:53 Partly Cloudy 58 14.4 55 12.8 90 90 ENE 7 11 30.06 1018 10 16 0.00 0.00
9:00 pm 21:00 Mostly Cloudy 58 14.4 55 12.8 90 90 NE 7 11 30.01 1016 10 16 0.00 0.00
9:22 pm 21:22 Cloudy 59 15 56 13.3 90 90 NNE 6 9 29.99 1016 10 16 0.00 0.00
9:49 pm 21:49 Cloudy with Light Rain 57 14 55 13 94 94 E 7 11 30.02 1017 10 16 0.01 0.13
9:53 pm 21:53 Mostly Cloudy with Light Rain 58 14.4 56 13.3 93 93 E 7 11 30.07 1018 10 16 0.01 0.13
10:12 pm 22:12 Mostly Cloudy 59 15 57 13.9 93 93 SE 9 15 30.01 1016 10 16 0.01 0.13
10:24 pm 22:24 Partly Cloudy 61 16.1 57 13.9 87 87 SSE 9 15 30.00 1016 10 16 0.01 0.13
10:53 pm 22:53 Cloudy 61 16.1 57 13.9 87 87 SSE 15 24 30.10 1019 10 16 0.01 0.13
11:02 pm 23:02 Cloudy 61 16.1 57 13.9 87 87 SE 10 17 30.00 1016 10 16 0.00 0.00
11:16 pm 23:16 Mostly Cloudy 60 15.6 56 13.3 86 86 SSE 14 22 30.01 1016 10 16 0.00 0.00
11:28 pm 23:28 Mostly Clear with Nearby Thunderstorms 60 15.6 56 13.3 86 86 SE 17 28 30.00 1016 10 16 0.00 0.00
11:53 pm 23:53 Mostly Cloudy with Nearby Thunderstorms 60 15.6 56 13.3 86 86 SSE 9 15 30.07 1018 10 16 0.00 0.00

Powered by Vaisala Xweather